Location: ???????
(41.9546°N, 44.8099°E)
Time: 15:50:01
(UTC+00:00)

Daily predictions for brighter satellites

Satellite Brightness Start Highest point End
(mag) Time Altitude Azimuth Time Altitude Azimuth Time Altitude Azimuth
Delta 2 Rocket 4.4 14:53:33 10° SW 14:56:00 23° S 14:58:33 10° ESE
CZ-2D R/B 4.2 14:52:41 10° SE 14:56:03 29° ENE 14:59:31 10° N
BREEZE-M DEB (TANK) 3.1 14:56:01 10° WNW 14:59:48 88° SSW 15:04:33 10° ESE
Okean 1 Rocket 3.4 14:56:06 10° N 15:00:18 44° ENE 15:04:27 10° SSE
IRS-P3 4.1 14:55:47 10° SSE 15:01:04 72° ENE 15:06:23 10° N
Cosmos 2221 Rocket 3.7 14:58:47 10° S 15:03:07 53° E 15:07:29 10° NNE
Cosmos 1356 Rocket 3.2 15:00:00 10° N 15:03:57 79° E 15:07:56 10° SSE
Cosmos 1378 Rocket 4.2 15:00:23 10° SSW 15:04:37 59° W 15:08:52 10° N
Cosmos 2263 Rocket 3.8 15:02:18 10° ESE 15:04:44 13° E 15:07:10 10° ENE
Okean 2 Rocket 3.1 15:00:52 10° N 15:05:13 59° E 15:09:30 10° SSE
Cosmos 1980 4.1 15:02:22 10° N 15:07:42 41° ENE 15:12:59 10° SE
SJ-6F 4.4 15:05:37 10° SSE 15:09:34 85° WSW 15:13:31 10° NNW
ATLAS 5 CENTAUR R/B 3.3 15:06:10 10° NW 15:10:32 43° WSW 15:15:51 10° S
COSMOS 2428 2.8 15:05:04 10° NNW 15:10:49 88° WSW 15:16:32 10° SSE
NOSS 3-3 (C) 4.0 15:06:48 10° SW 15:11:53 68° NW 15:17:55 10° NNE
BREEZE-M DEB (TANK) 4.3 15:08:14 10° WNW 15:12:35 55° NNE 15:30:37 10° E
Cosmos 2237 Rocket 2.6 15:07:38 10° NNW 15:13:01 42° ENE 15:18:23 10° SE
Cosmos 2346 Rocket 4.5 15:07:33 10° S 15:13:44 68° E 15:19:58 10° NNE
SJ-6B 4.2 15:12:25 10° E 15:14:19 14° ENE 15:16:14 10° NNE
BREEZE-M DEB (TANK) 4.1 15:11:23 10° NW 15:14:47 47° NNE 15:24:36 10° E
Cosmos 1025 Rocket 3.1 15:10:39 10° S 15:14:56 86° WNW 15:19:17 10° N
Cosmos 1570 Rocket 4.1 15:14:51 10° S 15:19:59 55° ESE 15:25:07 10° NNE
Sich 1 Rocket 3.6 15:15:27 10° N 15:20:00 70° E 15:24:32 10° SSE
GP-B 4.2 15:15:53 10° SSW 15:20:06 49° W 15:24:21 10° NNW
BREEZE-M DEB (TANK) 4.1 15:18:20 10° S 15:21:18 25° ESE 15:27:31 11° ENE
SeaSat 1 2.5 15:16:44 10° SSE 15:21:38 85° WSW 15:26:34 10° NNW
Cosmos 1125 Rocket 3.4 15:17:35 10° NNW 15:22:46 72° ENE 15:27:57 10° SSE
SKYMED 2 3.9 15:20:46 10° N 15:25:06 69° WNW 15:29:25 10° SSW
USA 234 3.4 15:18:38 10° SE 15:25:12 80° SW 15:31:47 10° NW
Resurs 1-3 3.5 15:21:08 10° SSE 15:25:25 82° ENE 15:29:44 10° N
Resurs 01 Rocket 2.1 15:23:15 10° SE 15:27:16 36° ENE 15:31:18 10° N
SPOT 5 4.4 15:27:48 15° ENE 15:28:45 15° ENE 15:31:38 10° NNE
SJ-7 4.1 15:25:54 10° SSE 15:29:30 57° ENE 15:33:07 10° N
Cosmos 2227 Rocket 2.6 15:29:41 10° S 15:34:55 41° ESE 15:40:11 10° NE
Cosmos 1447 Rocket 4.5 15:30:34 10° S 15:36:41 88° W 15:42:52 10° N
Spot 4 Rocket 3.9 15:31:55 10° SSE 15:37:00 77° ENE 15:42:07 10° N
NOAA 6 4.0 15:32:07 10° SSE 15:37:11 63° ENE 15:42:17 10° N
SL-16 R/B 3.4 15:34:14 10° N 15:38:28 21° NE 15:40:09 18° ENE
Cosmos 2208 Rocket 4.0 15:35:47 10° S 15:40:54 61° ESE 15:46:08 10° NNE
Cosmos 773 Rocket 4.0 15:36:17 10° S 15:41:29 67° ESE 15:46:43 10° NNE
CARTOSAT-1 3.4 15:45:14 10° SSE 15:49:25 85° E 15:53:39 10° N
Tiangong -2.0 15:46:57 10° WSW 15:50:06 62° SSE 15:51:05 38° ESE
Cosmos 1346 Rocket 3.0 15:50:11 10° SSE 15:53:30 35° E 15:53:52 34° E
Cosmos 2285 Rocket 4.2 15:48:31 10° NNW 15:54:57 77° WSW 16:01:18 10° SSE
SL-19 R/B 4.4 15:48:54 10° SSE 15:55:06 86° ENE 16:01:05 10° NNW
Gbstr 26 Del rocket 4.4 15:51:39 10° SSW 15:58:00 51° SE 16:02:22 24° ENE
NOSS 3-4 (A) 3.9 15:54:28 10° NNW 16:01:19 66° NE 16:08:21 14° SE
NOSS 3-4 (C) 3.9 15:54:44 10° NNW 16:01:36 65° NE 16:08:30 15° SE
Radarsat Rocket 4.3 15:56:47 10° S 16:02:34 70° WSW 16:08:46 10° NNW
Atlas Centaur 2 4.0 15:58:51 10° WSW 16:05:34 32° S 16:10:01 16° SE
Cosmos 2034 Rocket 4.2 16:01:22 10° N 16:07:13 43° ENE 16:13:05 10° SSE
CRYOSAT 2 4.4 16:02:59 10° N 16:07:54 81° W 16:12:45 10° S
Cosmos 2344 3.6 16:00:11 10° SSW 16:08:17 58° ESE 16:13:39 18° NE
Cosmos 1072 Rocket 4.4 16:02:14 10° N 16:08:28 73° E 16:14:35 10° SSE
Cosmos 2150 Rocket 3.9 16:05:05 10° NNW 16:10:13 65° ENE 16:13:53 19° SSE
CSL-04 Rocket 4.0 16:12:01 36° E 16:13:04 40° ENE 16:17:58 10° N
Cosmos 2298 Rocket 3.9 16:08:04 10° NNW 16:13:21 66° ENE 16:16:53 21° SSE
Cosmos 2297 Rocket 3.6 16:14:23 10° SW 16:19:37 38° WNW 16:24:53 10° N
Cosmos 44 Rocket 4.1 16:15:42 10° SW 16:20:28 52° NW 16:24:33 15° NNE
Cosmos 1975 Rocket 3.2 16:16:40 10° SSW 16:21:01 70° W 16:25:20 10° N
Cosmos 1455 Rocket 4.1 16:18:40 10° NNW 16:22:45 45° W 16:26:50 10° SSW
IRAS Rocket 4.2 16:17:14 10° SSE 16:22:50 86° WSW 16:28:29 10° NNW
DNEPR-1 R/B 4.1 16:19:09 10° NNW 16:24:09 64° NE 16:25:51 44° ESE
Helios 1A Rocket 2.5 16:24:50 68° WSW 16:24:50 68° WSW 16:27:51 10° SSW
Cosmos 2228 3.0 16:22:18 10° N 16:26:30 76° W 16:30:41 10° S
CZ-4C R/B 4.3 16:26:52 10° WNW 16:29:43 15° NNW 16:32:57 10° N
Cosmos 1782 3.7 16:26:57 10° N 16:29:05 33° N 16:29:05 33° N
Cosmos 2219 3.7 16:28:55 10° S 16:33:10 41° SE 16:33:10 41° SE
Cosmos 1464 Rocket 4.1 16:28:44 10° N 16:35:06 77° W 16:41:21 10° S
SJ-6B 4.2 16:46:06 24° SW 16:47:24 32° W 16:50:32 10° NNW
Cosmos 2263 Rocket 2.1 16:42:07 10° SSW 16:47:47 85° WNW 16:49:56 40° NNE
Cosmos 2237 Rocket 4.0 16:52:01 10° NW 16:56:50 29° WSW 17:01:38 10° SSW
Resurs 01 Rocket 4.1 17:00:25 10° SW 17:03:43 21° W 17:07:02 10° NW
SPOT 5 3.4 17:06:50 56° NW 17:06:50 56° NW 17:11:03 10° NNW
Cosmos 2227 Rocket 3.9 17:14:06 10° WSW 17:19:02 30° NW 17:23:23 13° N
Tsikada Rocket 4.1 17:15:09 10° SSW 17:21:15 68° W 17:27:25 10° N
SL-16 R/B 2.7 17:17:26 10° NNW 17:22:04 55° WNW 17:22:04 55° WNW
